Total_Precipitation_Accumulation
0.00 0.00 0.00 0.00 0.00 0.00 0.00 0.00 0.00 0.01 0.04 0.10 0.05 0.15 0.07 0.12 0.36 0.75 0.71 1.74 1.80 1.24 2.36 1.78 0.99 0.50 0.18 0.07 0.03 0.04 0.02 0.00 0.00 0.00 0.01 0.01 0.01 0.01 0.01 0.00 0.01 0.01 0.07 0.08 0.03 0.06 0.07 0.09 0.04
0.00 0.00 0.00 0.00 0.00 0.00 0.00 0.00 0.00 0.04 0.13 0.19 0.31 0.33 0.34 0.60 0.46 0.51 0.52 0.65 0.41 0.39 0.79 1.84 1.47 0.91 0.56 0.23 0.17 0.16 0.20 0.07 0.02 0.03 0.03 0.05 0.05 0.09 0.15 0.07 0.03 0.04 0.09 0.15 0.09 0.13 0.16 0.12 0.04
0.00 0.00 0.00 0.00 0.00 0.00 0.00 0.00 0.06 0.08 0.16 0.16 0.15 0.30 0.93 0.95 0.59 0.63 0.79 1.03 0.86 0.96 0.81 0.69 0.84 1.04 1.06 0.53 0.35 0.30 0.22 0.12 0.06 0.06 0.03 0.02 0.07 0.14 0.22 0.20 0.12 0.10 0.15 0.30 0.28 0.32 0.26 0.12 0.04
0.00 0.00 0.00 0.00 0.00 0.00 0.00 0.01 0.03 0.05 0.07 0.04 0.04 0.41 0.45 0.84 0.84 0.75 1.15 1.68 2.34 2.24 1.89 1.46 1.03 1.06 1.52 1.41 0.76 0.38 0.20 0.22 0.15 0.11 0.06 0.05 0.08 0.17 0.32 0.23 0.23 0.17 0.23 0.55 0.61 0.48 0.29 0.09 0.05
0.00 0.00 0.00 0.00 0.00 0.00 0.00 0.02 0.09 0.23 0.23 0.20 0.09 0.55 0.40 0.28 0.41 0.78 1.56 2.38 3.59 3.77 3.05 2.81 3.34 2.80 2.07 2.59 1.72 0.99 0.73 0.59 0.42 0.14 0.10 0.06 0.15 0.19 0.40 0.33 0.50 0.77 1.19 1.12 1.09 0.83 0.29 0.08 0.01
0.00 0.00 0.00 0.00 0.00 0.00 0.00 0.02 0.12 0.43 0.35 0.19 0.16 0.46 0.37 0.43 0.23 0.73 1.65 3.58 5.67 5.54 4.48 4.79 4.60 4.26 4.62 2.70 3.28 3.28 2.80 1.99 1.00 0.74 0.73 0.89 1.53 1.39 1.25 0.96 1.28 1.53 1.52 1.38 1.19 0.83 0.28 0.18 0.12
0.00 0.00 0.00 0.00 0.00 0.03 0.15 0.14 0.22 0.31 0.27 0.18 0.53 1.08 0.56 0.54 0.49 0.68 1.66 2.91 4.10 6.57 8.14 8.36 7.58 5.71 5.02 3.66 2.81 3.96 5.42 6.09 5.61 3.91 3.42 3.40 2.78 2.39 2.14 1.83 1.61 2.07 2.37 1.57 1.32 0.76 0.43 0.33 0.34
0.00 0.00 0.00 0.00 0.01 0.03 0.07 0.13 0.16 0.17 0.23 0.55 0.68 0.73 0.72 1.07 0.81 0.91 1.05 1.06 1.60 4.79 6.71 7.64 8.95 8.46 3.91 2.83 2.27 2.98 4.40 5.94 6.80 5.91 4.75 3.29 2.19 2.33 3.01 2.93 2.37 2.05 2.11 1.94 1.78 1.55 1.30 0.84 0.68
0.00 0.00 0.00 0.00 0.03 0.10 0.24 0.18 0.09 0.11 0.18 0.29 0.39 0.68 0.95 0.89 0.49 0.54 0.84 0.94 1.46 2.64 3.34 4.90 7.55 6.17 3.45 1.95 1.51 1.83 3.59 3.55 3.13 3.16 4.03 3.09 2.18 1.71 1.33 1.82 1.78 1.57 1.51 1.71 1.87 1.69 1.62 1.46 0.94
0.00 0.00 0.00 0.01 0.02 0.10 0.16 0.21 0.09 0.13 0.42 0.67 0.42 0.82 1.15 1.09 0.75 0.66 0.62 0.89 1.36 1.41 1.72 1.92 3.62 4.21 2.94 1.75 1.43 1.15 1.82 2.75 3.15 1.80 1.93 1.90 1.89 1.64 1.05 1.06 1.03 1.32 1.06 1.10 1.81 1.56 1.24 1.19 0.76
0.00 0.00 0.00 0.02 0.10 0.02 0.05 0.08 0.06 0.12 0.57 0.92 0.94 0.74 0.83 0.72 1.10 1.05 0.55 0.44 0.77 0.95 0.83 0.98 1.53 1.82 2.29 1.83 1.50 1.38 1.32 1.41 3.05 2.07 1.04 1.15 1.35 1.19 0.98 0.73 0.82 0.94 0.94 0.55 0.70 1.12 0.78 0.61 0.47
0.00 0.00 0.00 0.01 0.05 0.01 0.04 0.06 0.04 0.21 0.45 0.36 0.38 0.38 0.31 0.40 0.85 0.77 0.45 0.63 0.51 0.41 0.39 0.65 0.71 0.75 1.00 1.35 1.28 0.96 1.07 1.14 1.48 2.00 1.22 0.95 1.19 0.69 0.73 0.45 0.57 0.73 0.86 0.72 0.73 0.60 0.68 0.54 0.52
0.00 0.00 0.00 0.00 0.00 0.03 0.01 0.02 0.04 0.04 0.10 0.04 0.11 0.19 0.28 0.41 0.46 0.31 0.15 0.18 0.24 0.22 0.34 0.37 0.45 0.44 0.65 0.92 1.17 1.14 0.84 0.98 1.04 1.49 1.22 0.76 0.76 0.61 0.67 0.47 0.47 0.65 0.72 0.90 0.96 0.84 0.82 0.91 0.81
0.00 0.00 0.00 0.00 0.00 0.01 0.02 0.02 0.06 0.21 0.06 0.02 0.06 0.22 0.38 0.35 0.20 0.07 0.06 0.10 0.17 0.30 0.32 0.29 0.35 0.34 0.50 0.82 1.01 1.25 1.27 1.14 1.08 1.06 0.91 0.57 0.52 0.48 0.41 0.38 0.41 0.38 0.53 0.96 1.03 1.00 1.08 1.11 1.11
0.00 0.00 0.00 0.00 0.00 0.02 0.07 0.12 0.13 0.13 0.01 0.01 0.03 0.10 0.11 0.17 0.08 0.01 0.01 0.03 0.15 0.41 0.24 0.29 0.34 0.52 0.52 0.52 0.62 1.00 1.14 1.07 0.97 0.94 1.12 1.00 0.78 0.51 0.37 0.31 0.30 0.35 0.49 0.91 1.00 1.34 1.57 1.40 1.13
0.00 0.00 0.01 0.01 0.00 0.01 0.12 0.46 0.07 0.08 0.08 0.04 0.03 0.07 0.06 0.02 0.01 0.00 0.00 0.00 0.03 0.30 0.52 0.20 0.23 0.68 0.62 0.50 0.47 0.65 0.96 1.02 0.91 0.81 0.99 0.98 0.84 0.79 0.86 0.66 0.50 0.43 0.80 1.05 0.85 0.89 1.38 1.27 0.97
0.00 0.00 0.00 0.01 0.01 0.01 0.10 0.45 0.09 0.08 0.22 0.09 0.04 0.01 0.00 0.00 0.00 0.00 0.00 0.00 0.01 0.05 0.48 0.53 0.34 0.43 0.65 0.72 0.54 0.53 0.72 0.83 0.70 0.53 0.85 1.14 1.02 0.81 0.80 0.84 0.90 0.98 1.21 1.22 1.18 1.13 1.07 1.09 0.83
0.00 0.00 0.00 0.00 0.00 0.00 0.01 0.12 0.23 0.06 0.09 0.30 0.05 0.02 0.00 0.00 0.00 0.01 0.01 0.01 0.03 0.03 0.05 0.35 0.47 0.46 0.57 0.62 0.58 0.63 0.62 0.78 0.55 0.41 0.78 0.84 1.38 1.12 0.59 0.50 0.59 0.99 1.21 1.42 1.63 1.55 1.26 1.29 1.20
0.00 0.00 0.00 0.00 0.00 0.00 0.00 0.02 0.10 0.15 0.04 0.06 0.04 0.14 0.05 0.01 0.02 0.03 0.02 0.02 0.01 0.06 0.04 0.10 0.27 0.28 0.44 0.41 0.29 0.36 0.36 0.57 0.42 0.45 0.54 0.95 1.17 1.89 1.04 0.56 0.32 0.43 0.50 0.61 1.05 1.50 1.44 1.51 1.84
0.00 0.00 0.00 0.00 0.00 0.00 0.00 0.00 0.02 0.07 0.01 0.01 0.01 0.14 0.03 0.01 0.01 0.01 0.00 0.00 0.01 0.05 0.04 0.02 0.04 0.13 0.21 0.26 0.29 0.18 0.23 0.33 0.51 0.56 0.65 0.72 0.83 1.21 1.45 0.85 0.61 0.43 0.52 0.58 0.72 1.10 1.21 1.24 1.37
0.01 0.00 0.00 0.00 0.00 0.00 0.01 0.01 0.02 0.02 0.02 0.06 0.02 0.00 0.00 0.00 0.00 0.00 0.00 0.00 0.01 0.01 0.01 0.02 0.03 0.06 0.08 0.16 0.28 0.25 0.37 0.40 0.61 0.73 0.88 0.67 0.72 0.98 1.17 1.05 0.91 0.85 1.18 1.22 1.24 1.46 1.49 1.31 1.29
0.04 0.00 0.01 0.01 0.02 0.05 0.01 0.08 0.09 0.03 0.01 0.04 0.02 0.01 0.05 0.07 0.01 0.00 0.01 0.01 0.03 0.04 0.04 0.06 0.06 0.06 0.04 0.06 0.10 0.09 0.15 0.13 0.15 0.18 0.47 0.75 0.81 1.21 1.50 1.15 1.08 0.87 0.81 0.97 0.99 1.12 1.31 1.48 1.53
0.04 0.01 0.03 0.02 0.02 0.05 0.02 0.06 0.10 0.02 0.01 0.02 0.04 0.04 0.12 0.14 0.08 0.05 0.04 0.04 0.04 0.05 0.05 0.05 0.11 0.13 0.08 0.10 0.08 0.10 0.11 0.14 0.14 0.09 0.13 0.42 0.70 0.60 1.16 1.33 1.29 1.07 0.91 0.80 0.83 0.71 0.69 0.60 0.77
0.04 0.05 0.02 0.01 0.06 0.20 0.04 0.05 0.08 0.04 0.07 0.09 0.15 0.14 0.15 0.17 0.12 0.13 0.16 0.09 0.08 0.15 0.09 0.06 0.09 0.11 0.15 0.16 0.18 0.14 0.16 0.16 0.12 0.09 0.12 0.20 0.42 0.86 1.03 1.31 1.12 1.20 1.15 1.11 1.31 1.38 1.06 0.78 0.65
0.08 0.21 0.27 0.22 0.16 0.10 0.01 0.09 0.08 0.15 0.28 0.33 0.43 0.57 0.45 0.31 0.23 0.16 0.12 0.10 0.10 0.21 0.32 0.24 0.25 0.24 0.18 0.14 0.15 0.19 0.20 0.18 0.18 0.19 0.29 0.39 0.50 0.83 1.01 1.26 1.22 1.12 1.23 1.14 1.16 1.39 1.61 1.57 1.08
0.03 0.11 0.20 0.27 0.17 0.11 0.13 0.20 0.33 0.69 0.47 0.74 0.73 0.85 0.81 0.66 0.49 0.34 0.24 0.20 0.15 0.11 0.18 0.31 0.49 0.53 0.48 0.40 0.36 0.39 0.42 0.41 0.41 0.46 0.65 0.64 0.47 0.46 0.88 1.36 1.51 1.27 1.28 1.36 1.38 1.48 1.49 1.80 1.86
0.17 0.17 0.09 0.33 0.26 0.24 0.12 0.05 0.36 0.95 1.29 1.10 1.10 0.93 0.68 0.62 0.57 0.50 0.38 0.27 0.22 0.18 0.35 0.41 0.37 0.31 0.46 0.61 0.52 0.55 0.61 0.68 0.82 0.80 0.83 0.79 0.56 0.39 0.47 0.59 1.00 1.16 1.28 1.54 1.76 1.59 1.37 1.39 1.52
0.09 0.23 0.63 0.81 0.51 0.24 0.03 0.27 0.76 0.78 1.15 0.99 0.96 0.87 0.70 0.49 0.44 0.32 0.25 0.27 0.30 0.62 0.97 1.06 0.91 0.74 0.71 0.79 0.73 0.78 0.86 0.87 0.90 0.78 0.94 0.83 0.78 0.74 0.80 0.72 0.95 1.23 1.53 1.57 1.58 1.34 1.19 1.27 1.35
0.11 0.33 0.61 0.72 0.33 0.36 0.25 0.84 1.22 1.12 0.89 0.56 0.56 0.51 0.39 0.20 0.13 0.14 0.19 0.26 0.44 0.57 0.84 1.07 1.28 1.65 1.41 1.37 1.42 1.19 1.00 1.13 1.14 1.10 1.10 1.13 1.04 1.06 1.02 1.03 1.03 0.84 0.98 1.32 1.61 1.65 1.57 1.64 1.67
0.09 0.17 0.47 1.01 0.81 0.67 0.60 0.90 0.81 0.56 0.40 0.12 0.02 0.04 0.09 0.08 0.08 0.07 0.07 0.10 0.32 0.55 0.70 0.82 1.13 1.80 1.70 1.32 1.55 1.67 1.40 1.71 2.06 2.10 1.80 1.93 1.88 1.64 1.50 1.19 1.00 0.80 0.67 0.83 1.43 1.74 1.61 1.40 1.63